Grenoble, France

10:55 AM CEST on August 21, 2017 (GMT +0200)
Saint Geoirs

Weather History for LFLS - January, 2013

Change the Weather History Date:

Tuesday, January 29, 2013

  Actual Average Record
Temperature  
Mean Temperature 36 °F -  
Max Temperature 44 °F 44 °F 55 °F (2002)
Min Temperature 28 °F 30 °F 19 °F (2005)
Degree Days  
Heating Degree Days 29    
Moisture  
Dew Point 33 °F    
Average Humidity 81    
Maximum Humidity 93    
Minimum Humidity 66    
Precipitation  
Precipitation 0.00 in - - ()
Sea Level Pressure  
Sea Level Pressure 30.26 in    
Wind  
Wind Speed 9 mph ()    
Max Wind Speed 15 mph    
Max Gust Speed -    
Visibility 6.1 miles    
Events Rain    
Averages and records for this station are not official NWS values.
T = Trace of Precipitation, MM = Missing Value Source: Averaged Metar Reports

Daily Weather History Graph

Daily Weather History Graph

Search for Another Location

Airport or City:

Trip Planner

Search our weather history database for the weather conditions in past years. The results will help you decide how hot, cold, wet, or windy it might be!

Date:

Astronomy

Jan. 29, 2013 Rise Set
Actual Time 8:02 AM CET 5:41 PM CET
Civil Twilight 7:31 AM CET 6:13 PM CET
Nautical Twilight 6:55 AM CET 6:48 PM CET
Astronomical Twilight 6:20 AM CET 7:23 PM CET
Moon 8:31 PM CET (1/29) 8:42 AM CET (1/29)
Length of Visible Light 10h 42m
Length of Day
9h 38m
Waning Gibbous, 95% of the Moon is Illuminated
Jan 29
Waning Gibbous
Feb 3
Last Quarter
Feb 10
New
Feb 17
First Quarter
Feb 25
Full

Hourly Weather History & Observations

Time (CET) Temp. Windchill Dew Point Humidity Pressure Visibility Wind Dir Wind Speed Gust Speed Precip Events Conditions
12:00 AM 30.2 °F 22.6 °F 28.4 °F 93% 30.24 in 6.2 mi East 8.1 mph - N/A   Unknown
12:30 AM 32.0 °F 23.0 °F 30.2 °F 93% 30.24 in 6.2 mi East 11.5 mph - N/A   Unknown
1:00 AM 33.8 °F 26.4 °F 30.2 °F 87% 30.24 in 6.2 mi East 9.2 mph - N/A   Unknown
1:30 AM 30.2 °F 23.4 °F 28.4 °F 93% 30.27 in 6.2 mi ESE 6.9 mph - N/A   Unknown
2:00 AM 28.4 °F 21.2 °F 26.6 °F 93% 30.24 in 6.2 mi ESE 6.9 mph - N/A   Unknown
2:30 AM 30.2 °F 23.4 °F 28.4 °F 93% 30.27 in 6.2 mi ESE 6.9 mph - N/A   Unknown
3:00 AM 28.4 °F 21.2 °F 26.6 °F 93% 30.27 in 6.2 mi ESE 6.9 mph - N/A   Unknown
3:30 AM 30.2 °F 22.6 °F 28.4 °F 93% 30.27 in 5.6 mi ESE 8.1 mph - N/A   Unknown
4:00 AM 32.0 °F 24.2 °F 30.2 °F 93% 30.27 in 6.2 mi East 9.2 mph - N/A   Unknown
4:30 AM 33.8 °F 26.4 °F 32.0 °F 93% 30.27 in 6.2 mi East 9.2 mph - N/A   Unknown
5:00 AM 33.8 °F 25.3 °F 32.0 °F 93% 30.27 in 6.2 mi East 11.5 mph - N/A   Unknown
5:30 AM 33.8 °F 25.8 °F 30.2 °F 87% 30.27 in 6.2 mi East 10.4 mph - N/A   Unknown
6:00 AM 32.0 °F 24.2 °F 30.2 °F 93% 30.27 in - East 9.2 mph - N/A   Clear
6:30 AM 33.8 °F 25.8 °F 30.2 °F 87% 30.24 in - East 10.4 mph - N/A   Clear
7:00 AM 33.8 °F 26.4 °F 30.2 °F 87% 30.24 in - East 9.2 mph - N/A   Clear
7:30 AM 32.0 °F 25.6 °F 30.2 °F 93% 30.27 in 6.2 mi ESE 6.9 mph - N/A   Partly Cloudy
8:00 AM 32.0 °F 23.6 °F 30.2 °F 93% 30.27 in 6.2 mi ESE 10.4 mph - N/A   Scattered Clouds
8:30 AM 33.8 °F 24.8 °F 30.2 °F 87% 30.24 in 6.2 mi East 12.7 mph - N/A   Scattered Clouds
9:00 AM 35.6 °F 28.0 °F 30.2 °F 81% 30.27 in 6.2 mi East 10.4 mph - N/A   Partly Cloudy
9:30 AM 35.6 °F 27.1 °F 32.0 °F 87% 30.27 in - East 12.7 mph - N/A   Clear
10:00 AM 37.4 °F 29.8 °F 32.0 °F 81% 30.27 in - East 11.5 mph - N/A   Clear
10:30 AM 41.0 °F 33.1 °F 33.8 °F 76% 30.24 in - East 15.0 mph - N/A   Clear
11:00 AM 39.2 °F 31.6 °F 32.0 °F 75% 30.27 in - East 12.7 mph - N/A   Clear
11:30 AM 41.0 °F 34.3 °F 33.8 °F 76% 30.27 in - East 11.5 mph - N/A   Clear
12:00 PM 41.0 °F 34.3 °F 33.8 °F 76% 30.27 in - East 11.5 mph - N/A   Clear
12:30 PM 42.8 °F 36.2 °F 33.8 °F 70% 30.27 in - East 12.7 mph - N/A   Clear
1:00 PM 42.8 °F 37.5 °F 33.8 °F 70% 30.27 in - East 9.2 mph - N/A   Clear
1:30 PM 44.6 °F 38.4 °F 33.8 °F 66% 30.27 in - East 12.7 mph - N/A   Clear
2:00 PM 42.8 °F 35.8 °F 32.0 °F 66% 30.24 in 6.2 mi East 13.8 mph - N/A   Overcast
2:30 PM 42.8 °F 36.6 °F 33.8 °F 70% 30.24 in 6.2 mi East 11.5 mph - N/A Rain Light Rain
3:00 PM 42.8 °F 37.0 °F 35.6 °F 76% 30.24 in 6.2 mi East 10.4 mph - N/A Rain Light Rain
3:30 PM 42.8 °F 36.2 °F 35.6 °F 76% 30.24 in 6.2 mi East 12.7 mph - N/A   Mostly Cloudy
4:00 PM 42.8 °F 37.5 °F 35.6 °F 76% 30.24 in 6.2 mi East 9.2 mph - N/A   Mostly Cloudy
4:30 PM 44.6 °F 40.7 °F 35.6 °F 71% 30.27 in 6.2 mi East 6.9 mph - N/A   Mostly Cloudy
5:00 PM 44.6 °F 40.7 °F 35.6 °F 71% 30.24 in 6.2 mi ESE 6.9 mph - N/A   Mostly Cloudy
5:30 PM 42.8 °F 38.0 °F 33.8 °F 70% 30.27 in 6.2 mi East 8.1 mph - N/A   Mostly Cloudy
6:00 PM 42.8 °F 37.5 °F 35.6 °F 76% 30.27 in 6.2 mi East 9.2 mph - N/A   Overcast
6:30 PM 42.8 °F 37.5 °F 35.6 °F 76% 30.27 in 6.2 mi East 9.2 mph - N/A   Overcast
7:00 PM 42.8 °F 37.0 °F 35.6 °F 76% 30.27 in 6.2 mi East 10.4 mph - N/A   Mostly Cloudy
7:30 PM 42.8 °F 37.5 °F 35.6 °F 76% 30.27 in 6.2 mi East 9.2 mph - N/A   Overcast
8:00 PM 42.8 °F 37.0 °F 35.6 °F 76% 30.27 in 6.2 mi East 10.4 mph - N/A   Overcast
8:30 PM 42.8 °F 38.6 °F 35.6 °F 76% 30.27 in 6.2 mi East 6.9 mph - N/A   Overcast
9:00 PM 42.8 °F 37.0 °F 35.6 °F 76% 30.27 in 6.2 mi East 10.4 mph - N/A   Mostly Cloudy
9:30 PM 41.0 °F 36.4 °F 33.8 °F 76% 30.27 in 6.2 mi ENE 6.9 mph - N/A   Partly Cloudy
10:00 PM 41.0 °F 34.3 °F 33.8 °F 76% 30.27 in 6.2 mi East 11.5 mph - N/A   Mostly Cloudy
10:30 PM 41.0 °F 34.3 °F 35.6 °F 81% 30.27 in 6.2 mi East 11.5 mph - N/A   Overcast
11:00 PM 42.8 °F 36.2 °F 35.6 °F 76% 30.27 in 6.2 mi East 12.7 mph - N/A   Overcast
11:30 PM 42.8 °F 37.0 °F 37.4 °F 81% 30.27 in 3.7 mi East 10.4 mph - N/A Rain Light Rain